TimePST,TemperatureF,Dew PointF,Humidity,Sea Level PressureIn,VisibilityMPH,Wind Direction,Wind SpeedMPH,Gust SpeedMPH,PrecipitationIn,Events,Conditions,WindDirDegrees,DateUTC
12:15 AM,48.2,42.8,82,30.03,10.0,West,3.5,-,N/A,,Overcast,260,2012-12-12 08:15:00
12:35 AM,48.2,42.8,82,30.02,10.0,WNW,3.5,-,N/A,,Overcast,300,2012-12-12 08:35:00
12:55 AM,50.0,42.8,76,30.01,10.0,Calm,Calm,-,N/A,,Overcast,0,2012-12-12 08:55:00
1:15 AM,48.2,42.8,82,30.01,8.0,Calm,Calm,-,N/A,,Overcast,0,2012-12-12 09:15:00
1:55 AM,48.2,42.8,82,30.00,9.0,Calm,Calm,-,N/A,,Overcast,0,2012-12-12 09:55:00
2:15 AM,48.2,42.8,82,30.00,7.0,Calm,Calm,-,N/A,,Mostly Cloudy,0,2012-12-12 10:15:00
2:35 AM,46.4,44.6,93,29.99,6.0,Calm,Calm,-,N/A,,Clear,0,2012-12-12 10:35:00
2:55 AM,46.4,42.8,87,29.98,8.0,Calm,Calm,-,N/A,,Partly Cloudy,0,2012-12-12 10:55:00
3:35 AM,42.8,39.2,87,29.98,8.0,NW,4.6,-,N/A,,Clear,320,2012-12-12 11:35:00
3:55 AM,44.6,39.2,81,29.98,9.0,WNW,5.8,-,N/A,,Clear,300,2012-12-12 11:55:00
4:15 AM,42.8,39.2,87,29.98,7.0,Calm,Calm,-,N/A,,Clear,0,2012-12-12 12:15:00
4:35 AM,44.6,42.8,93,29.98,7.0,Calm,Calm,-,N/A,,Scattered Clouds,0,2012-12-12 12:35:00
4:55 AM,42.8,39.2,87,29.98,10.0,Calm,Calm,-,N/A,,Mostly Cloudy,0,2012-12-12 12:55:00
5:15 AM,42.8,39.2,87,29.99,10.0,Calm,Calm,-,N/A,,Mostly Cloudy,0,2012-12-12 13:15:00
6:47 AM,44.6,39.2,81,29.99,10.0,Calm,Calm,-,N/A,,Mostly Cloudy,0,2012-12-12 14:47:00
1:52 PM,68.0,48.2,49,29.89,20.0,SW,8.1,-,N/A,,Partly Cloudy,220,2012-12-12 21:52:00
1:53 PM,69.8,44.6,40,29.89,20.0,WSW,6.9,-,N/A,,Partly Cloudy,240,2012-12-12 21:53:00
8:15 PM,59.0,48.2,67,29.92,10.0,South,5.8,-,N/A,,Mostly Cloudy,170,2012-12-13 04:15:00
8:35 PM,59.0,48.2,67,29.92,10.0,SE,5.8,-,N/A,,Overcast,130,2012-12-13 04:35:00
8:55 PM,59.0,46.4,63,29.92,10.0,SSE,6.9,-,N/A,,Overcast,150,2012-12-13 04:55:00
9:15 PM,60.8,46.4,59,29.92,10.0,SSE,10.4,-,N/A,,Overcast,160,2012-12-13 05:15:00
9:35 PM,59.0,48.2,67,29.92,10.0,SSE,8.1,-,N/A,,Overcast,160,2012-12-13 05:35:00
9:55 PM,59.0,48.2,67,29.92,10.0,SSE,5.8,-,N/A,,Overcast,160,2012-12-13 05:55:00
10:15 PM,59.0,48.2,67,29.92,10.0,SSE,8.1,-,N/A,,Overcast,160,2012-12-13 06:15:00
10:35 PM,59.0,48.2,67,29.91,10.0,SSE,6.9,-,N/A,,Overcast,150,2012-12-13 06:35:00
10:55 PM,59.0,48.2,67,29.91,10.0,SSE,6.9,-,N/A,,Overcast,150,2012-12-13 06:55:00
11:15 PM,59.0,48.2,67,29.90,10.0,SSE,8.1,-,N/A,,Overcast,150,2012-12-13 07:15:00
11:35 PM,59.0,46.4,63,29.90,10.0,SSE,8.1,-,N/A,,Overcast,150,2012-12-13 07:35:00
11:55 PM,59.0,46.4,63,29.90,10.0,South,6.9,-,N/A,,Overcast,170,2012-12-13 07:55:00